Home > Time Zones > World Clock > Weather > Norway > Alta > Past weeks

Flag for Norway Weather past 2 weeks in Alta, Norway

Now
51 °F

Cool.


Feels Like: 50 °F
Forecast: 45 / 55 °F
Wind: 5 mph from Northeast

Location: Alta Lufthavn

Current Time: Aug 21, 2014 at 2:52:40 PM

Latest Report: Aug 21, 2014 at 2:00 PM


Visibility: N/A

Pressure: 29.74 "Hg

Humidity: 62%

Dew point: 38 °F

Location of AltaLocation

Historic Weather in Alta — Graph

°F

Alta temperature yesterday

Maximum temperature yesterday: 52 °F (at 3:00 PM)
Minimum temperature yesterday: 48 °F (at 10:00 PM)
Average temperature yesterday: 51 °F

Past Weeks' High & Low Weather Summary

 TemperatureHumidityPressure
High72 °F (Aug 12, 3:00 PM)94% (Aug 13, 10:00 PM)30.06 "Hg (Aug 13, 10:00 PM)
Low45 °F (Aug 18, 3:00 AM)43% (Aug 12, 3:00 PM)29.18 "Hg (Aug 13, 8:00 AM)
Average55 °F75%29.69 "Hg
* Reported Aug 6 1:00 PM — Aug 21 1:00 PM, Alta, Weather by CustomWeather, © 2014

Note: Actual official high and low records may vary slightly from our data, if they occured in-between our weather recording intervals... More about our weather records

Advertising

Alta weather history for previous 24 hours

 ConditionsComfort  
Time TempWeatherWind HumidityBarometerVisibility
1:00 PM
Aug 21
51 °FCool.5 mph68%29.74 "HgN/A
12:00 PM50 °FCool.3 mph67%29.73 "HgN/A
11:00 AM49 °FCool.3 mph70%29.72 "HgN/A
10:00 AM49 °FCool.3 mph72%29.72 "HgN/A
9:00 AM47 °FCool.6 mph81%29.72 "HgN/A
8:00 AM47 °FCool.5 mph82%29.71 "HgN/A
7:00 AM47 °FCool.3 mph77%29.71 "HgN/A
6:00 AM46 °FCool.3 mph77%29.70 "HgN/A
5:00 AM46 °FCool.5 mph77%29.70 "HgN/A
4:00 AM46 °FCool.3 mph77%29.70 "HgN/A
3:00 AM47 °FCool.5 mph76%29.70 "HgN/A
2:00 AM47 °FCool.3 mph74%29.69 "HgN/A
1:00 AM47 °FCool.2 mph72%29.69 "HgN/A
12:00 AM47 °FCool.2 mph77%29.68 "HgN/A
11:00 PM
Aug 20
48 °FCool.3 mph75%29.67 "HgN/A
10:00 PM48 °FCool.2 mph72%29.67 "HgN/A
9:00 PM49 °FCool.3 mph72%29.66 "HgN/A
8:00 PM50 °FCool.5 mph73%29.65 "HgN/A
7:00 PM50 °FCool.5 mph73%29.65 "HgN/A
6:00 PM50 °FCool.7 mph72%29.65 "HgN/A
5:00 PM50 °FCool.7 mph73%29.64 "HgN/A
4:00 PM51 °FCool.8 mph72%29.63 "HgN/A
3:00 PM52 °FCool.7 mph67%29.62 "HgN/A
2:00 PM51 °FCool.7 mph73%29.62 "HgN/A
Weather by CustomWeather, © 2014

See weather overviewHow to use our weather pages